�N����,����,�g�[���i���ԁj���x,�g�[�����x,��g�[���i���ցj���x,����
 2003/08/01, 0:00,24.3,75,22.6,-9.9
 2003/08/01, 0:15,24.1,75,22.9,-9.9
 2003/08/01, 0:30,24,75,22.9,-9.9
 2003/08/01, 0:45,24,76,23,-9.9
 2003/08/01, 1:00,23.9,76,22.9,-9.9
 2003/08/01, 1:15,23.9,77,22.8,-9.9
 2003/08/01, 1:30,23.6,77,22.7,-9.9
 2003/08/01, 1:45,23.6,77,22.8,-9.9
 2003/08/01, 2:00,23.6,78,22.8,-9.9
 2003/08/01, 2:15,23.6,78,22.9,-9.9
 2003/08/01, 2:30,23.6,78,22.8,-9.9
 2003/08/01, 2:45,23.6,78,22.8,-9.9
 2003/08/01, 3:00,23.5,78,22.7,-9.9
 2003/08/01, 3:15,23.5,78,22.7,-9.9
 2003/08/01, 3:30,23.4,78,22.7,-9.9
 2003/08/01, 3:45,23.4,79,22.6,-9.9
 2003/08/01, 4:00,23.3,79,22.7,-9.9
 2003/08/01, 4:15,23.3,79,22.6,-9.9
 2003/08/01, 4:30,23.2,80,22.7,-9.9
 2003/08/01, 4:45,23.2,80,22.6,-9.9
 2003/08/01, 5:00,23.3,80,22.6,-9.9
 2003/08/01, 5:15,23.2,80,22.6,-9.9
 2003/08/01, 5:30,23.2,80,22.6,-9.9
 2003/08/01, 5:45,23.2,79.5,22.5,-9.9
 2003/08/01, 6:00,23.1,81,22.7,-9.9
 2003/08/01, 6:15,23.1,81,22.8,-9.9
 2003/08/01, 6:30,23.3,81,22.7,-9.9
 2003/08/01, 6:45,23.2,82.5,22.9,-9.9
 2003/08/01, 7:00,23.2,83,23,-9.9
 2003/08/01, 7:15,23.4,82,23.7,-9.9
 2003/08/01, 7:30,23.6,82,24.4,-9.9
 2003/08/01, 7:45,23.9,80,24.6,-9.9
 2003/08/01, 8:00,24,80,24.6,-9.9
 2003/08/01, 8:15,24.3,80,25.2,-9.9
 2003/08/01, 8:30,24.6,79,25.6,-9.9
 2003/08/01, 8:45,24.9,78,26,-9.9
 2003/08/01, 9:00,25.2,78,26.1,-9.9
 2003/08/01, 9:15,25.5,76.5,26,-9.9
 2003/08/01, 9:30,25.9,75,25.6,-9.9
 2003/08/01, 9:45,26,75,26.1,-9.9
 2003/08/01,10:00,26.4,74,26.2,-9.9
 2003/08/01,10:15,26.6,73.5,26.2,-9.9
 2003/08/01,10:30,26.9,74,26.3,-9.9
 2003/08/01,10:45,27,73,26.4,-9.9
 2003/08/01,11:00,27.2,72,26.6,-9.9
 2003/08/01,11:15,27.4,72.5,26.8,-9.9
 2003/08/01,11:30,27.7,71,26.9,-9.9
 2003/08/01,11:45,28,70.5,27,-9.9
 2003/08/01,12:00,28.2,69,27.2,-9.9
 2003/08/01,12:15,28.4,69,27.3,-9.9
 2003/08/01,12:30,28.5,68,27.5,-9.9
 2003/08/01,12:45,28.7,68.5,27.9,-9.9
 2003/08/01,13:00,29.1,66,28.1,-9.9
 2003/08/01,13:15,29.1,65.5,28.1,-9.9
 2003/08/01,13:30,29.4,66,28.4,-9.9
 2003/08/01,13:45,29.4,64,28.5,-9.9
 2003/08/01,14:00,29.7,63,28.7,-9.9
 2003/08/01,14:15,29.6,63,28.8,-9.9
 2003/08/01,14:30,29.9,63,29,-9.9
 2003/08/01,14:45,30,61.5,28.8,-9.9
 2003/08/01,15:00,29.7,64,28.7,-9.9
 2003/08/01,15:15,29.7,63.5,28.6,-9.9
 2003/08/01,15:30,29.7,64,28.6,-9.9
 2003/08/01,15:45,30.3,61,28.8,-9.9
 2003/08/01,16:00,29.9,63,29,-9.9
 2003/08/01,16:15,29.9,62.5,29,-9.9
 2003/08/01,16:30,30,62,29.2,-9.9
 2003/08/01,16:45,30.4,59.5,29,-9.9
 2003/08/01,17:00,30.1,60,28.9,-9.9
 2003/08/01,17:15,30.1,60.5,28.9,-9.9
 2003/08/01,17:30,29.8,63,28.8,-9.9
 2003/08/01,17:45,29.6,64.5,28.8,-9.9
 2003/08/01,18:00,29.6,65,28.7,-9.9
 2003/08/01,18:15,29.5,65.5,28.5,-9.9
 2003/08/01,18:30,29.4,67,28.4,-9.9
 2003/08/01,18:45,29.4,65.5,28.4,-9.9
 2003/08/01,19:00,29.2,66,28.2,-9.9
 2003/08/01,19:15,29.1,67,28.1,-9.9
 2003/08/01,19:30,28.9,68,28,-9.9
 2003/08/01,19:45,28.8,68,27.9,-9.9
 2003/08/01,20:00,28.7,68,27.8,-9.9
 2003/08/01,20:15,28.5,69,27.6,-9.9
 2003/08/01,20:30,28.5,70,27.4,-9.9
 2003/08/01,20:45,28.5,69,27.5,-9.9
 2003/08/01,21:00,28.3,70,27.3,-9.9
 2003/08/01,21:15,27.9,71.5,26.9,-9.9
 2003/08/01,21:30,27.6,73,26.9,-9.9
 2003/08/01,21:45,27.8,73,26.8,-9.9
 2003/08/01,22:00,28.1,72,26.7,-9.9
 2003/08/01,22:15,28.1,71.5,26.8,-9.9
 2003/08/01,22:30,27.7,73,26.7,-9.9
 2003/08/01,22:45,27.9,73,26.5,-9.9
 2003/08/01,23:00,27.8,73,26.5,-9.9
 2003/08/01,23:15,27.5,73,26.3,-9.9
 2003/08/01,23:30,27.4,73,26.1,-9.9
 2003/08/01,23:45,27.2,73.5,26,-9.9
 2003/08/02, 0:00,27.2,74,26,-9.9
 2003/08/02, 0:15,27,74.5,25.9,-9.9
 2003/08/02, 0:30,26.9,75,25.7,-9.9
 2003/08/02, 0:45,26.8,76,25.6,-9.9
 2003/08/02, 1:00,26.7,76,25.6,-9.9
 2003/08/02, 1:15,26.6,76,25.4,-9.9
 2003/08/02, 1:30,26.5,76,25.3,-9.9
 2003/08/02, 1:45,26.5,76,25.1,-9.9
 2003/08/02, 2:00,26.2,77,25.2,-9.9
 2003/08/02, 2:15,26.2,76.5,25.1,-9.9
 2003/08/02, 2:30,26.2,77,24.7,-9.9
 2003/08/02, 2:45,26,77.5,24.9,-9.9
 2003/08/02, 3:00,26,77,24.7,-9.9
 2003/08/02, 3:15,25.9,77,24.7,-9.9
 2003/08/02, 3:30,25.7,77,24.6,-9.9
 2003/08/02, 3:45,25.7,77.5,24.5,-9.9
 2003/08/02, 4:00,25.6,77,24.4,-9.9
 2003/08/02, 4:15,25.5,78,24.3,-9.9
 2003/08/02, 4:30,25.5,78,24.3,-9.9
 2003/08/02, 4:45,25.5,78,24.3,-9.9
 2003/08/02, 5:00,25.4,78,23.9,-9.9
 2003/08/02, 5:15,25.3,78.5,23.8,-9.9
 2003/08/02, 5:30,25.3,79,24.1,-9.9
 2003/08/02, 5:45,25.3,79,24,-9.9
 2003/08/02, 6:00,25.3,79,24,-9.9
 2003/08/02, 6:15,25.3,79,24.2,-9.9
 2003/08/02, 6:30,25.3,79,24.1,-9.9
 2003/08/02, 6:45,25.3,79,24.4,-9.9
 2003/08/02, 7:00,25.4,80,24.7,-9.9
 2003/08/02, 7:15,25.5,81,25,-9.9
 2003/08/02, 7:30,25.6,81,25,-9.9
 2003/08/02, 7:45,25.7,80.5,25.2,-9.9
 2003/08/02, 8:00,26.2,82,26.2,-9.9
 2003/08/02, 8:15,26.4,79,27,-9.9
 2003/08/02, 8:30,26.5,77,27.4,-9.9
 2003/08/02, 8:45,26.9,76,27.8,-9.9
 2003/08/02, 9:00,27.2,74,27.9,-9.9
 2003/08/02, 9:15,27.5,72.5,28.1,-9.9
 2003/08/02, 9:30,27.7,71,28.1,-9.9
 2003/08/02, 9:45,27.9,69,28.1,-9.9
 2003/08/02,10:00,28.1,65,28.2,-9.9
 2003/08/02,10:15,28.4,63.5,28.1,-9.9
 2003/08/02,10:30,28.6,62,28.4,-9.9
 2003/08/02,10:45,29,61,28.4,-9.9
 2003/08/02,11:00,29.2,60,28.6,-9.9
 2003/08/02,11:15,29.3,59,28.8,-9.9
 2003/08/02,11:30,29.2,59,28.5,-9.9
 2003/08/02,11:45,29.5,56.5,28.6,-9.9
 2003/08/02,12:00,29.6,60,28.6,-9.9
 2003/08/02,12:15,29.8,59,28.8,-9.9
 2003/08/02,12:30,30.3,52,29,-9.9
 2003/08/02,12:45,30.5,52.5,29.6,-9.9
 2003/08/02,13:00,31,49,29.6,-9.9
 2003/08/02,13:15,31.2,48.5,29.6,-9.9
 2003/08/02,13:30,31.4,49,30,-9.9
 2003/08/02,13:45,31.5,48.5,30,-9.9
 2003/08/02,14:00,31.8,47,30,-9.9
 2003/08/02,14:15,31.8,48,30.1,-9.9
 2003/08/02,14:30,31.8,50,30.2,-9.9
 2003/08/02,14:45,32,49.5,30.4,-9.9
 2003/08/02,15:00,31.9,51,30.2,-9.9
 2003/08/02,15:15,31.9,49.5,30.4,-9.9
 2003/08/02,15:30,32.1,50,30.5,-9.9
 2003/08/02,15:45,32.1,46.5,30.6,-9.9
 2003/08/02,16:00,32.3,47,30.6,-9.9
 2003/08/02,16:15,32,47,31.1,-9.9
 2003/08/02,16:30,32,47,31.1,-9.9
 2003/08/02,16:45,32,48,30.7,-9.9
 2003/08/02,17:00,32,49,30.6,-9.9
 2003/08/02,17:15,31.7,49.5,30.6,-9.9
 2003/08/02,17:30,31.6,50,30.5,-9.9
 2003/08/02,17:45,31.2,50,30.3,-9.9
 2003/08/02,18:00,30.9,52,30.2,-9.9
 2003/08/02,18:15,30.8,52.5,30,-9.9
 2003/08/02,18:30,30.5,54,30,-9.9
 2003/08/02,18:45,30.4,55,29.8,-9.9
 2003/08/02,19:00,30.3,55,29.5,-9.9
 2003/08/02,19:15,30,55,29.4,-9.9
 2003/08/02,19:30,29.9,55,29.3,-9.9
 2003/08/02,19:45,29.9,57,29.2,-9.9
 2003/08/02,20:00,29.8,58,29.1,-9.9
 2003/08/02,20:15,29.6,58.5,29,-9.9
 2003/08/02,20:30,29.6,59,28.9,-9.9
 2003/08/02,20:45,29.6,61.5,28.7,-9.9
 2003/08/02,21:00,29.6,63,28.7,-9.9
 2003/08/02,21:15,29.5,63.5,28.5,-9.9
 2003/08/02,21:30,29.5,63,28.4,-9.9
 2003/08/02,21:45,29.4,63,28.2,-9.9
 2003/08/02,22:00,29.3,64,28.2,-9.9
 2003/08/02,22:15,29.2,64,28,-9.9
 2003/08/02,22:30,29.1,65,27.6,-9.9
 2003/08/02,22:45,28.9,66.5,27.6,-9.9
 2003/08/02,23:00,28.6,68,27.6,-9.9
 2003/08/02,23:15,28.6,69,27.4,-9.9
 2003/08/02,23:30,28.7,69,27.1,-9.9
 2003/08/02,23:45,28.5,69,27,-9.9
 2003/08/03, 0:00,28.4,69,27,-9.9
 2003/08/03, 0:15,28.3,69.5,26.7,-9.9
 2003/08/03, 0:30,28.1,70,26.6,-9.9
 2003/08/03, 0:45,28,71,26.5,-9.9
 2003/08/03, 1:00,27.8,71,26.4,-9.9
 2003/08/03, 1:15,27.7,71.5,26.2,-9.9
 2003/08/03, 1:30,27.6,72,26,-9.9
 2003/08/03, 1:45,27.5,72.5,25.8,-9.9
 2003/08/03, 2:00,27.4,73,25.7,-9.9
 2003/08/03, 2:15,27.2,73.5,25.4,-9.9
 2003/08/03, 2:30,27.1,74,25.3,-9.9
 2003/08/03, 2:45,27,74,25.4,-9.9
 2003/08/03, 3:00,26.9,74,25.3,-9.9
 2003/08/03, 3:15,26.9,74,25.2,-9.9
 2003/08/03, 3:30,26.9,74,25.2,-9.9
 2003/08/03, 3:45,26.9,75,25.3,-9.9
 2003/08/03, 4:00,26.8,75,25.2,-9.9
 2003/08/03, 4:15,26.7,75.5,25.1,-9.9
 2003/08/03, 4:30,26.6,76,24.9,-9.9
 2003/08/03, 4:45,26.6,76,25,-9.9
 2003/08/03, 5:00,26.6,75,24.9,-9.9
 2003/08/03, 5:15,26.5,76,25,-9.9
 2003/08/03, 5:30,26.5,77,25,-9.9
 2003/08/03, 5:45,26.5,76.5,25,-9.9
 2003/08/03, 6:00,26.5,76,25.1,-9.9
 2003/08/03, 6:15,26.4,76,25.2,-9.9
 2003/08/03, 6:30,26.5,77,25.5,-9.9
 2003/08/03, 6:45,26.5,76,25.8,-9.9
 2003/08/03, 7:00,26.7,77,25.7,-9.9
 2003/08/03, 7:15,26.6,77,26.2,-9.9
 2003/08/03, 7:30,26.7,78,26.9,-9.9
 2003/08/03, 7:45,27.2,77,27.2,-9.9
 2003/08/03, 8:00,27.3,77,27.3,-9.9
 2003/08/03, 8:15,27.5,75.5,27.5,-9.9
 2003/08/03, 8:30,27.6,75,28.5,-9.9
 2003/08/03, 8:45,28.2,73,28,-9.9
 2003/08/03, 9:00,28.7,70,28.1,-9.9
 2003/08/03, 9:15,28.4,70.5,27.8,-9.9
 2003/08/03, 9:30,28.4,70,27.8,-9.9
 2003/08/03, 9:45,28.5,70.5,27.9,-9.9
 2003/08/03,10:00,28.8,69,28.1,-9.9
 2003/08/03,10:15,29.4,66.5,28.4,-9.9
 2003/08/03,10:30,29.7,65,28.5,-9.9
 2003/08/03,10:45,30,64,28.8,-9.9
 2003/08/03,11:00,30.3,62,29.1,-9.9
 2003/08/03,11:15,30.4,62.5,29.1,-9.9
 2003/08/03,11:30,30.7,62,29.2,-9.9
 2003/08/03,11:45,30.8,61,29.2,-9.9
 2003/08/03,12:00,30.9,59,29.3,-9.9
 2003/08/03,12:15,31,58.5,29.8,-9.9
 2003/08/03,12:30,31.2,56,30,-9.9
 2003/08/03,12:45,31.4,58,30.3,-9.9
 2003/08/03,13:00,31.6,56,30.3,-9.9
 2003/08/03,13:15,31.6,56,30.6,-9.9
 2003/08/03,13:30,31.8,55,30.4,-9.9
 2003/08/03,13:45,32,54.5,30.6,-9.9
 2003/08/03,14:00,32,55,30.7,-9.9
 2003/08/03,14:15,32.3,53.5,31,-9.9
 2003/08/03,14:30,32,54,30.8,-9.9
 2003/08/03,14:45,32.2,53.5,31.1,-9.9
 2003/08/03,15:00,32.6,52,31.2,-9.9
 2003/08/03,15:15,32.5,51.5,31.3,-9.9
 2003/08/03,15:30,32.3,50,31.3,-9.9
 2003/08/03,15:45,32.4,49.5,31.2,-9.9
 2003/08/03,16:00,32.4,49,31.1,-9.9
 2003/08/03,16:15,32.5,50,31.4,-9.9
 2003/08/03,16:30,32.4,52,31.4,-9.9
 2003/08/03,16:45,32.2,54.5,31.2,-9.9
 2003/08/03,17:00,31.8,57,31.1,-9.9
 2003/08/03,17:15,31.8,58.5,31,-9.9
 2003/08/03,17:30,31.3,57,31,-9.9
 2003/08/03,17:45,29.8,50.5,30.7,-9.9
 2003/08/03,18:00,29,46,30.5,-9.9
 2003/08/03,18:15,28,44.5,30.5,-9.9
 2003/08/03,18:30,27.6,44,30.4,-9.9
 2003/08/03,18:45,27.5,44.5,30.1,-9.9
 2003/08/03,19:00,27.4,47,29.9,-9.9
 2003/08/03,19:15,27.9,59.5,29.8,-9.9
 2003/08/03,19:30,27.9,62,29.6,-9.9
 2003/08/03,19:45,27.8,58.5,29.4,-9.9
 2003/08/03,20:00,27.2,52,28.9,-9.9
 2003/08/03,20:15,27,49.5,28.6,-9.9
 2003/08/03,20:30,27.7,59,28.6,-9.9
 2003/08/03,20:45,27.5,54.5,28.5,-9.9
 2003/08/03,21:00,27.7,60,28.4,-9.9
 2003/08/03,21:15,27.4,55,28.2,-9.9
 2003/08/03,21:30,26.9,51,28.1,-9.9
 2003/08/03,21:45,27.2,55,28,-9.9
 2003/08/03,22:00,27.2,55,28,-9.9
 2003/08/03,22:15,26.4,49,27.9,-9.9
 2003/08/03,22:30,26.9,58,27.6,-9.9
 2003/08/03,22:45,27.1,59.5,27.4,-9.9
 2003/08/03,23:00,26.8,56,27.3,-9.9
 2003/08/03,23:15,26.9,56.5,27,-9.9
 2003/08/03,23:30,28.1,62,27.1,-9.9
 2003/08/03,23:45,28.1,67.5,26.9,-9.9
 2003/08/04, 0:00,28.2,69,26.7,-9.9
 2003/08/04, 0:15,28.2,69,26.5,-9.9
 2003/08/04, 0:30,28.2,70,26.6,-9.9
 2003/08/04, 0:45,28.1,70,26.5,-9.9
 2003/08/04, 1:00,28.1,70,26.3,-9.9
 2003/08/04, 1:15,28,70.5,26.2,-9.9
 2003/08/04, 1:30,28,71,26,-9.9
 2003/08/04, 1:45,28,71,26,-9.9
 2003/08/04, 2:00,27.9,71,26,-9.9
 2003/08/04, 2:15,27.9,71,25.8,-9.9
 2003/08/04, 2:30,27.8,72,25.7,-9.9
 2003/08/04, 2:45,27.8,72,25.5,-9.9
 2003/08/04, 3:00,27.7,72,25.5,-9.9
 2003/08/04, 3:15,27.7,72,25.6,-9.9
 2003/08/04, 3:30,27.6,73,25.5,-9.9
 2003/08/04, 3:45,27.6,73,25.5,-9.9
 2003/08/04, 4:00,27.6,73,25.4,-9.9
 2003/08/04, 4:15,27.5,73,25.4,-9.9
 2003/08/04, 4:30,27.5,73,25.2,-9.9
 2003/08/04, 4:45,27.5,73,25.2,-9.9
 2003/08/04, 5:00,27.4,74,25.2,-9.9
 2003/08/04, 5:15,27.4,74,25.2,-9.9
 2003/08/04, 5:30,27.3,74,25.4,-9.9
 2003/08/04, 5:45,27.3,74,25.5,-9.9
 2003/08/04, 6:00,27.3,74,25.6,-9.9
 2003/08/04, 6:15,27.3,74,25.9,-9.9
 2003/08/04, 6:30,27.3,75,26.5,-9.9
 2003/08/04, 6:45,27.4,74.5,27.3,-9.9
 2003/08/04, 7:00,27.5,75,27.8,-9.9
 2003/08/04, 7:15,27.6,78,28.2,-9.9
 2003/08/04, 7:30,28,78,28.9,-9.9
 2003/08/04, 7:45,28,76.5,29.3,-9.9
 2003/08/04, 8:00,28.4,76,28.7,-9.9
 2003/08/04, 8:15,28.7,75,28.8,-9.9
 2003/08/04, 8:30,28.8,73,28.8,-9.9
 2003/08/04, 8:45,28.8,72,28.8,-9.9
 2003/08/04, 9:00,28.9,70,28.8,-9.9
 2003/08/04, 9:15,29,69.5,28.8,-9.9
 2003/08/04, 9:30,29.3,70,28.7,-9.9
 2003/08/04, 9:45,29.4,69,28.8,-9.9
 2003/08/04,10:00,29.7,67,28.9,-9.9
 2003/08/04,10:15,30.1,65,29.1,-9.9
 2003/08/04,10:30,30.3,63,29.1,-9.9
 2003/08/04,10:45,30.6,63.5,29.2,-9.9
 2003/08/04,11:00,30.7,62,29.3,-9.9
 2003/08/04,11:15,30.9,62,29.5,-9.9
 2003/08/04,11:30,31.1,60,30,-9.9
 2003/08/04,11:45,31.5,59.5,30,-9.9
 2003/08/04,12:00,31.6,59,30.2,-9.9
 2003/08/04,12:15,31.8,59,30.2,-9.9
 2003/08/04,12:30,31.8,58,30.5,-9.9
 2003/08/04,12:45,32.2,57.5,30.5,-9.9
 2003/08/04,13:00,32.5,57,30.5,-9.9
 2003/08/04,13:15,32.5,55.5,30.8,-9.9
 2003/08/04,13:30,32.7,53,30.9,-9.9
 2003/08/04,13:45,32.9,53.5,31,-9.9
 2003/08/04,14:00,33.3,52,31,-9.9
 2003/08/04,14:15,33.6,50,31.2,-9.9
 2003/08/04,14:30,33.6,49,31.2,-9.9
 2003/08/04,14:45,33.5,51,31.5,-9.9
 2003/08/04,15:00,33.6,49,31.4,-9.9
 2003/08/04,15:15,33.5,50.5,31.5,-9.9
 2003/08/04,15:30,33.6,50,31.6,-9.9
 2003/08/04,15:45,33.3,49.5,31.7,-9.9
 2003/08/04,16:00,33.2,49,31.7,-9.9
 2003/08/04,16:15,33.2,49,31.9,-9.9
 2003/08/04,16:30,33.1,49,31.8,-9.9
 2003/08/04,16:45,33.1,49.5,31.6,-9.9
 2003/08/04,17:00,33,49,31.6,-9.9
 2003/08/04,17:15,32.9,50,31.6,-9.9
 2003/08/04,17:30,32.7,52,31.6,-9.9
 2003/08/04,17:45,32.5,53,31.5,-9.9
 2003/08/04,18:00,32.2,55,31.4,-9.9
 2003/08/04,18:15,32,56,31.3,-9.9
 2003/08/04,18:30,31.7,56,31.2,-9.9
 2003/08/04,18:45,31.4,58,31,-9.9
 2003/08/04,19:00,31.2,59,30.9,-9.9
 2003/08/04,19:15,31,60.5,30.8,-9.9
 2003/08/04,19:30,31,61,30.6,-9.9
 2003/08/04,19:45,30.9,61,30.5,-9.9
 2003/08/04,20:00,30.8,62,30.4,-9.9
 2003/08/04,20:15,30.7,62,30.4,-9.9
 2003/08/04,20:30,30.5,63,30.2,-9.9
 2003/08/04,20:45,30.4,62.5,30.1,-9.9
 2003/08/04,21:00,30,64,30,-9.9
 2003/08/04,21:15,29.9,64,29.9,-9.9
 2003/08/04,21:30,29.9,64,29.8,-9.9
 2003/08/04,21:45,29.8,65,29.7,-9.9
 2003/08/04,22:00,29.9,64,29.7,-9.9
 2003/08/04,22:15,30,64,29.5,-9.9
 2003/08/04,22:30,30,63,29.5,-9.9
 2003/08/04,22:45,30,64,29.4,-9.9
 2003/08/04,23:00,30.1,64,29.4,-9.9
 2003/08/04,23:15,30.1,64,29.3,-9.9
 2003/08/04,23:30,30.1,64,29.2,-9.9
 2003/08/04,23:45,30,64.5,29.2,-9.9
 2003/08/05, 0:00,30,65,29.2,-9.9
 2003/08/05, 0:15,29.9,65,29.1,-9.9
 2003/08/05, 0:30,29.9,65,29,-9.9
 2003/08/05, 0:45,29.8,66,29,-9.9
 2003/08/05, 1:00,29.7,67,29,-9.9
 2003/08/05, 1:15,29.6,68,28.9,-9.9
 2003/08/05, 1:30,29.6,68,28.8,-9.9
 2003/08/05, 1:45,29.5,69,28.8,-9.9
 2003/08/05, 2:00,29.4,69,28.7,-9.9
 2003/08/05, 2:15,29.4,70,28.5,-9.9
 2003/08/05, 2:30,29.2,71,28.5,-9.9
 2003/08/05, 2:45,29.1,71,28.5,-9.9
 2003/08/05, 3:00,29.1,71,28.3,-9.9
 2003/08/05, 3:15,28.9,71,28.2,-9.9
 2003/08/05, 3:30,28.8,72,28.1,-9.9
 2003/08/05, 3:45,28.7,72,28,-9.9
 2003/08/05, 4:00,28.5,73,28,-9.9
 2003/08/05, 4:15,28.5,73,28,-9.9
 2003/08/05, 4:30,28.4,73,27.8,-9.9
 2003/08/05, 4:45,28.4,73,27.7,-9.9
 2003/08/05, 5:00,28.4,73,27.7,-9.9
 2003/08/05, 5:15,28.2,73,27.6,-9.9
 2003/08/05, 5:30,28.2,73,27.5,-9.9
 2003/08/05, 5:45,28.1,73.5,27.5,-9.9
 2003/08/05, 6:00,28.2,74,27.5,-9.9
 2003/08/05, 6:15,28.2,74,27.7,-9.9
 2003/08/05, 6:30,28.2,75,28,-9.9
 2003/08/05, 6:45,28.3,75,28.3,-9.9
 2003/08/05, 7:00,28.4,77,28.5,-9.9
 2003/08/05, 7:15,28.5,76,28.9,-9.9
 2003/08/05, 7:30,28.7,76,29,-9.9
 2003/08/05, 7:45,28.9,75,29.2,-9.9
 2003/08/05, 8:00,28.8,73,29.4,-9.9
 2003/08/05, 8:15,28.9,72.5,29.9,-9.9
 2003/08/05, 8:30,29,72,29.7,-9.9
 2003/08/05, 8:45,29.2,71.5,30,-9.9
 2003/08/05, 9:00,29.3,68,30.4,-9.9
 2003/08/05, 9:15,29.9,66,30.6,-9.9
 2003/08/05, 9:30,30.2,64,30.8,-9.9
 2003/08/05, 9:45,30.5,62.5,30.8,-9.9
 2003/08/05,10:00,30.8,62,30.7,-9.9
 2003/08/05,10:15,31,61.5,30.8,-9.9
 2003/08/05,10:30,31.3,60,31,-9.9
 2003/08/05,10:45,31.5,59.5,30.9,-9.9
 2003/08/05,11:00,31.6,59,31,-9.9
 2003/08/05,11:15,31.9,57.5,31,-9.9
 2003/08/05,11:30,32,57,31.4,-9.9
 2003/08/05,11:45,32.1,57,31.1,-9.9
 2003/08/05,12:00,32.3,57,31.3,-9.9
 2003/08/05,12:15,32.4,55,31.5,-9.9
 2003/08/05,12:30,32.6,56,31,-9.9
 2003/08/05,12:45,32.2,57,30.8,-9.9
 2003/08/05,13:00,32.4,57,30.9,-9.9
 2003/08/05,13:15,33,52,31.3,-9.9
 2003/08/05,13:30,33,52,31.5,-9.9
 2003/08/05,13:45,33.2,54.5,31.4,-9.9
 2003/08/05,14:00,33.1,58,31.4,-9.9
 2003/08/05,14:15,33,57.5,31.2,-9.9
 2003/08/05,14:30,32.8,57,31.2,-9.9
 2003/08/05,14:45,32.8,56.5,31.1,-9.9
 2003/08/05,15:00,32.3,58,30.9,-9.9
 2003/08/05,15:15,32,58.5,30.8,-9.9
 2003/08/05,15:30,31.7,59,30.6,-9.9
 2003/08/05,15:45,31.5,59,30.5,-9.9
 2003/08/05,16:00,31.4,59,30.4,-9.9
 2003/08/05,16:15,31.4,59,30.4,-9.9
 2003/08/05,16:30,31.4,59,30.4,-9.9
 2003/08/05,16:45,31.4,60,30.2,-9.9
 2003/08/05,17:00,31.3,61,30.3,-9.9
 2003/08/05,17:15,31.5,60.5,30.2,-9.9
 2003/08/05,17:30,31.3,62,30.2,-9.9
 2003/08/05,17:45,31.2,63,30.1,-9.9
 2003/08/05,18:00,31.2,64,30.1,-9.9
 2003/08/05,18:15,31,65,30,-9.9
 2003/08/05,18:30,31.2,65,30,-9.9
 2003/08/05,18:45,31,65,29.9,-9.9
 2003/08/05,19:00,30.9,67,29.7,-9.9
 2003/08/05,19:15,30.8,65,29.6,-9.9
 2003/08/05,19:30,30.7,65,29.4,-9.9
 2003/08/05,19:45,30.8,65.5,29.5,-9.9
 2003/08/05,20:00,30.5,67,29.4,-9.9
 2003/08/05,20:15,30.2,69,29.2,-9.9
 2003/08/05,20:30,30,70,29.2,-9.9
 2003/08/05,20:45,29.9,70,29.1,-9.9
 2003/08/05,21:00,29.7,70,29.1,-9.9
 2003/08/05,21:15,30,70.5,29.1,-9.9
 2003/08/05,21:30,30.1,69,29.1,-9.9
 2003/08/05,21:45,30,69,28.7,-9.9
 2003/08/05,22:00,29.9,70,28.8,-9.9
 2003/08/05,22:15,29.9,70,28.5,-9.9
 2003/08/05,22:30,29.8,70,28.4,-9.9
 2003/08/05,22:45,29.5,71.5,28.4,-9.9
 2003/08/05,23:00,29.1,73,28.3,-9.9
 2003/08/05,23:15,29.3,72,28,-9.9
 2003/08/05,23:30,29.4,72,27.8,-9.9
 2003/08/05,23:45,29.5,72,27.7,-9.9
 2003/08/06, 0:00,29.3,72,27.6,-9.9
 2003/08/06, 0:15,29.1,72.5,27.4,-9.9
 2003/08/06, 0:30,29.1,73,27.2,-9.9
 2003/08/06, 0:45,28.9,73,27.4,-9.9
 2003/08/06, 1:00,28.8,73,27.4,-9.9
 2003/08/06, 1:15,28.7,73,27.2,-9.9
 2003/08/06, 1:30,28.5,73,27.1,-9.9
 2003/08/06, 1:45,28.5,73.5,27,-9.9
 2003/08/06, 2:00,28.5,74,26.9,-9.9
 2003/08/06, 2:15,28.4,74,26.7,-9.9
 2003/08/06, 2:30,28.2,74,26.7,-9.9
 2003/08/06, 2:45,28.2,74,26.6,-9.9
 2003/08/06, 3:00,28.1,74,26.6,-9.9
 2003/08/06, 3:15,28,74,26.5,-9.9
 2003/08/06, 3:30,27.9,75,26.5,-9.9
 2003/08/06, 3:45,27.8,75,26.4,-9.9
 2003/08/06, 4:00,27.7,75,26.4,-9.9
 2003/08/06, 4:15,27.8,75,26.3,-9.9
 2003/08/06, 4:30,27.7,75,26.2,-9.9
 2003/08/06, 4:45,27.6,76,25.9,-9.9
 2003/08/06, 5:00,27.6,76,25.8,-9.9
 2003/08/06, 5:15,27.5,76.5,26,-9.9
 2003/08/06, 5:30,27.4,76,26,-9.9
 2003/08/06, 5:45,27.4,76,26,-9.9
 2003/08/06, 6:00,27.5,75,26.1,-9.9
 2003/08/06, 6:15,27.2,77,26.5,-9.9
 2003/08/06, 6:30,27.3,77,26.6,-9.9
 2003/08/06, 6:45,27.4,77,27.2,-9.9
 2003/08/06, 7:00,27.4,78,27.7,-9.9
 2003/08/06, 7:15,27.5,78,28,-9.9
 2003/08/06, 7:30,27.9,77,28.5,-9.9
 2003/08/06, 7:45,28.1,75.5,28.9,-9.9
 2003/08/06, 8:00,28.4,75,29.4,-9.9
 2003/08/06, 8:15,28.5,74.5,29.7,-9.9
 2003/08/06, 8:30,28.8,73,30,-9.9
 2003/08/06, 8:45,29,72,30.3,-9.9
 2003/08/06, 9:00,29.4,69,30.4,-9.9
 2003/08/06, 9:15,29.8,67,30.5,-9.9
 2003/08/06, 9:30,30,66,30.4,-9.9
 2003/08/06, 9:45,30.4,65,30.3,-9.9
 2003/08/06,10:00,30.5,65,30.2,-9.9
 2003/08/06,10:15,30.7,64,30.2,-9.9
 2003/08/06,10:30,30.7,64,30.2,-9.9
 2003/08/06,10:45,30.9,61.5,30.2,-9.9
 2003/08/06,11:00,30.9,63,30.3,-9.9
 2003/08/06,11:15,31.3,59,30.5,-9.9
 2003/08/06,11:30,31.3,59,30.8,-9.9
 2003/08/06,11:45,31.5,57,30.8,-9.9
 2003/08/06,12:00,32.3,53,30.9,-9.9
 2003/08/06,12:15,32.3,51,31.1,-9.9
 2003/08/06,12:30,32.4,51,31.2,-9.9
 2003/08/06,12:45,32.8,47.5,31.3,-9.9
 2003/08/06,13:00,33,47,31.4,-9.9
 2003/08/06,13:15,33.2,46,31.8,-9.9
 2003/08/06,13:30,33.4,46,32,-9.9
 2003/08/06,13:45,33.5,48,32,-9.9
 2003/08/06,14:00,33.4,49,31.8,-9.9
 2003/08/06,14:15,33.7,48.5,32,-9.9
 2003/08/06,14:30,33.6,49,32,-9.9
 2003/08/06,14:45,33.8,48.5,32.2,-9.9
 2003/08/06,15:00,33.7,48,32.1,-9.9
 2003/08/06,15:15,33.5,49.5,32.2,-9.9
 2003/08/06,15:30,33.7,49,32.1,-9.9
 2003/08/06,15:45,33.3,49,32.1,-9.9
 2003/08/06,16:00,33.3,49,32,-9.9
 2003/08/06,16:15,33,49.5,31.9,-9.9
 2003/08/06,16:30,32.6,49,31.9,-9.9
 2003/08/06,16:45,32.8,47,31.8,-9.9
 2003/08/06,17:00,32.9,47,31.9,-9.9
 2003/08/06,17:15,33,46,32,-9.9
 2003/08/06,17:30,33,46,32,-9.9
 2003/08/06,17:45,32.8,44,31.7,-9.9
 2003/08/06,18:00,32.5,45,31.8,-9.9
 2003/08/06,18:15,32.3,45.5,31.4,-9.9
 2003/08/06,18:30,31.9,46,31.1,-9.9
 2003/08/06,18:45,31.5,47.5,30.8,-9.9
 2003/08/06,19:00,31.3,49,30.6,-9.9
 2003/08/06,19:15,31.2,51.5,30.2,-9.9
 2003/08/06,19:30,31.3,53,30,-9.9
 2003/08/06,19:45,31,54,29.9,-9.9
 2003/08/06,20:00,30.8,56,29.8,-9.9
 2003/08/06,20:15,30.6,56,29.6,-9.9
 2003/08/06,20:30,30.4,57,29.4,-9.9
 2003/08/06,20:45,30.4,57.5,29.2,-9.9
 2003/08/06,21:00,30.2,59,29.2,-9.9
 2003/08/06,21:15,30.1,59,29,-9.9
 2003/08/06,21:30,29.8,62,28.7,-9.9
 2003/08/06,21:45,30,61.5,28.5,-9.9
 2003/08/06,22:00,30,61,28.2,-9.9
 2003/08/06,22:15,30,61,28.5,-9.9
 2003/08/06,22:30,30.1,61,28.3,-9.9
 2003/08/06,22:45,29.9,62,28.2,-9.9
 2003/08/06,23:00,30,62,27.9,-9.9
 2003/08/06,23:15,29.8,63.5,27.8,-9.9
 2003/08/06,23:30,29.6,64,27.7,-9.9
 2003/08/06,23:45,29.5,64.5,27.9,-9.9
 2003/08/07, 0:00,29.3,65,27.9,-9.9
 2003/08/07, 0:15,29.3,66,27.6,-9.9
 2003/08/07, 0:30,29.2,67,27.7,-9.9
 2003/08/07, 0:45,29.1,67.5,27.7,-9.9
 2003/08/07, 1:00,29.1,68,27.1,-9.9
 2003/08/07, 1:15,29,68.5,27.1,-9.9
 2003/08/07, 1:30,28.8,69,26.8,-9.9
 2003/08/07, 1:45,28.8,69,26.8,-9.9
 2003/08/07, 2:00,28.7,70,26.7,-9.9
 2003/08/07, 2:15,28.6,70,26.6,-9.9
 2003/08/07, 2:30,28.5,70,26.9,-9.9
 2003/08/07, 2:45,28.5,71,26.7,-9.9
 2003/08/07, 3:00,28.4,71,26.4,-9.9
 2003/08/07, 3:15,28.2,71.5,26.1,-9.9
 2003/08/07, 3:30,28.1,72,26,-9.9
 2003/08/07, 3:45,28.1,72,26.2,-9.9
 2003/08/07, 4:00,28,72,26.2,-9.9
 2003/08/07, 4:15,28,73,26,-9.9
 2003/08/07, 4:30,27.9,73,26,-9.9
 2003/08/07, 4:45,28,73,26,-9.9
 2003/08/07, 5:00,27.9,73,26.2,-9.9
 2003/08/07, 5:15,27.9,73.5,26.2,-9.9
 2003/08/07, 5:30,27.9,74,26.2,-9.9
 2003/08/07, 5:45,27.8,74,26.2,-9.9
 2003/08/07, 6:00,27.7,75,26.4,-9.9
 2003/08/07, 6:15,27.9,75,26.7,-9.9
 2003/08/07, 6:30,28.1,75,27.4,-9.9
 2003/08/07, 6:45,27.9,75.5,27.9,-9.9
 2003/08/07, 7:00,28,76,28.1,-9.9
 2003/08/07, 7:15,28.2,75.5,28.6,-9.9
 2003/08/07, 7:30,28.4,76,29.3,-9.9
 2003/08/07, 7:45,28.6,74.5,29.8,-9.9
 2003/08/07, 8:00,28.6,72,29.8,-9.9
 2003/08/07, 8:15,28.9,72.5,30.2,-9.9
 2003/08/07, 8:30,29.1,72,31,-9.9
 2003/08/07, 8:45,29.6,69,31.3,-9.9
 2003/08/07, 9:00,30,67,31.2,-9.9
 2003/08/07, 9:15,30.5,65.5,31.4,-9.9
 2003/08/07, 9:30,30.7,64,30.7,-9.9
 2003/08/07, 9:45,30.5,62.5,30.6,-9.9
 2003/08/07,10:00,30.4,62,30.6,-9.9
 2003/08/07,10:15,30.5,62,30.5,-9.9
 2003/08/07,10:30,30.5,61,30.4,-9.9
 2003/08/07,10:45,31,60,30.7,-9.9
 2003/08/07,11:00,31.4,58,31,-9.9
 2003/08/07,11:15,31.6,57.5,31.1,-9.9
 2003/08/07,11:30,31.8,56,31.3,-9.9
 2003/08/07,11:45,31.8,57.5,31.1,-9.9
 2003/08/07,12:00,31.6,58,31.1,-9.9
 2003/08/07,12:15,31.7,58,31.3,-9.9
 2003/08/07,12:30,32,58,31.5,-9.9
 2003/08/07,12:45,31.9,57.5,31.5,-9.9
 2003/08/07,13:00,31.8,59,31.3,-9.9
 2003/08/07,13:15,31.9,59.5,31.2,-9.9
 2003/08/07,13:30,31.8,59,31.4,-9.9
 2003/08/07,13:45,32,59,31.5,-9.9
 2003/08/07,14:00,31.9,59,31.5,-9.9
 2003/08/07,14:15,32.2,58,31.5,-9.9
 2003/08/07,14:30,32.1,59,31.5,-9.9
 2003/08/07,14:45,32,59.5,31.8,-9.9
 2003/08/07,15:00,32.1,58,31.7,-9.9
 2003/08/07,15:15,31.5,59,31.3,-9.9
 2003/08/07,15:30,31.2,60,31,-9.9
 2003/08/07,15:45,31.4,60,31,-9.9
 2003/08/07,16:00,31.1,61,31,-9.9
 2003/08/07,16:15,31,61.5,30.9,-9.9
 2003/08/07,16:30,31.1,62,30.9,-9.9
 2003/08/07,16:45,31,62.5,30.7,-9.9
 2003/08/07,17:00,30.9,63,30.7,-9.9
 2003/08/07,17:15,30.6,63.5,30.6,-9.9
 2003/08/07,17:30,30.6,64,30.5,-9.9
 2003/08/07,17:45,30.5,63.5,30.4,-9.9